DW4219 Weather Reports


Display with metric or nautical units.
time (UTC)temp
F
wind
direction
speed
MPH
gust
MPH
rain 1hr
in
rain 24hr
in
rain mn
in
humidity
%
barometer
mb
20260504011538 66 164 5.0 11.0 0.00 0.00 0.00 27 1007.7
20260504010040 67 146 2.0 5.0 0.00 0.00 0.00 27 1007.8
20260504004537 67 171 0.0 16.0 0.00 0.00 0.00 27 1007.9
20260504003035 67 205 12.0 27.0 0.00 0.00 0.00 26 1008.3
20260504001538 69 226 20.0 33.0 0.00 0.00 0.00 23 1007.6
20260504000033 72 230 8.0 15.0 0.00 0.00 0.00 18 1007.0
20260503234533 75 230 10.0 18.0 0.00 0.00 0.00 16 1006.8
20260503233031 76 146 4.0 12.0 0.00 0.00 0.00 16 1006.8
20260503231531 74 258 3.0 7.0 0.00 0.00 0.00 17 1007.0
20260503230037 74 196 8.0 14.0 0.00 0.00 0.00 16 1007.3
20260503224523 75 207 6.0 14.0 0.00 0.00 0.00 16 1007.5
20260503223020 75 195 6.0 13.0 0.00 0.00 0.00 16 1007.9
20260503221518 74 170 4.0 17.0 0.00 0.00 0.00 17 1008.1
20260503220016 74 197 9.0 16.0 0.00 0.00 0.00 16 1008.5
20260503214533 73 222 8.0 15.0 0.00 0.00 0.00 16 1008.9
20260503213011 75 235 11.0 20.0 0.00 0.00 0.00 17 1009.2
20260503211508 72 192 8.0 13.0 0.00 0.00 0.00 17 1009.6
20260503210007 75 117 6.0 13.0 0.00 0.00 0.00 16 1009.8
20260503204504 74 139 2.0 18.0 0.00 0.00 0.00 17 1010.3
20260503203005 74 209 8.0 21.0 0.00 0.00 0.00 17 1010.6
20260503201600 73 217 13.0 19.0 0.00 0.00 0.00 17 1010.9
20260503200058 72 216 7.0 25.0 0.00 0.00 0.00 18 1011.3
20260503194607 73 168 10.0 28.0 0.00 0.00 0.00 17 1011.6
20260503193108 73 191 12.0 20.0 0.00 0.00 0.00 17 1011.8
20260503191609 72 157 11.0 20.0 0.00 0.00 0.00 18 1011.8
20260503190049 72 97 10.0 26.0 0.00 0.00 0.00 17 1012.2
20260503184547 72 225 12.0 20.0 0.00 0.00 0.00 19 1012.5
20260503183044 72 176 6.0 18.0 0.00 0.00 0.00 19 1012.9
20260503181548 71 211 8.0 20.0 0.00 0.00 0.00 18 1013.1
20260503180041 70 229 3.0 13.0 0.00 0.00 0.00 18 1013.4
20260503174544 69 222 8.0 18.0 0.00 0.00 0.00 19 1013.8
20260503173032 69 194 5.0 11.0 0.00 0.00 0.00 19 1013.9
20260503171527 65 23 1.0 7.0 0.00 0.00 0.00 28 1014.1
20260503081511 42 257 0.0 3.0 0.00 0.00 0.00 42 1016.2
20260503071502 44 265 0.0 2.0 0.00 0.00 0.00 40 1016.3
20260503054605 50 224 1.0 4.0 0.00 0.00 0.00 31 1015.9
20260503053046 51 224 2.0 3.0 0.00 0.00 0.00 31 1015.8
20260503051546 50 207 2.0 4.0 0.00 0.00 0.00 31 1015.9
20260503050044 51 210 2.0 3.0 0.00 0.00 0.00 30 1016.0
20260503044546 51 195 1.0 3.0 0.00 0.00 0.00 30 1015.8
20260503043052 52 171 1.0 4.0 0.00 0.00 0.00 31 1015.7
20260503041542 52 212 2.0 4.0 0.00 0.00 0.00 31 1015.5
20260503040046 52 224 1.0 3.0 0.00 0.00 0.00 32 1015.4
20260503034546 52 211 1.0 3.0 0.00 0.00 0.00 33 1015.1
20260503033041 53 219 1.0 3.0 0.00 0.00 0.00 33 1014.9
20260503031540 55 205 1.0 4.0 0.00 0.00 0.00 31 1014.7
20260503030040 57 158 0.0 1.0 0.00 0.00 0.00 29 1014.5
20260503024539 58 175 1.0 2.0 0.00 0.00 0.00 29 1014.5
20260503023039 60 157 0.0 2.0 0.00 0.00 0.00 28 1014.5
20260503021538 62 205 1.0 3.0 0.00 0.00 0.00 24 1014.3
20260503020037 66 247 0.0 4.0 0.00 0.00 0.00 17 1014.3
20260503014536 67 273 2.0 3.0 0.00 0.00 0.00 17 1014.4
20260503013040 68 248 2.0 5.0 0.00 0.00 0.00 16 1014.5